TimeCST,TemperatureF,Dew PointF,Humidity,Sea Level PressureIn,VisibilityMPH,Wind Direction,Wind SpeedMPH,Gust SpeedMPH,PrecipitationIn,Events,Conditions,WindDirDegrees,DateUTC
12:13 AM,-4.0,-9.4,78,30.48,10.0,Calm,Calm,-,N/A,,Overcast,0,2013-12-08 06:13:00
12:33 AM,-2.2,-9.4,71,30.46,10.0,Calm,Calm,-,N/A,,Overcast,0,2013-12-08 06:33:00
12:53 AM,-2.2,-7.6,78,30.45,10.0,East,4.6,-,N/A,,Overcast,100,2013-12-08 06:53:00
1:13 AM,-2.2,-7.6,78,30.44,10.0,ESE,3.5,-,N/A,,Overcast,110,2013-12-08 07:13:00
1:33 AM,-2.2,-7.6,78,30.42,10.0,ESE,3.5,-,N/A,,Overcast,120,2013-12-08 07:33:00
1:53 AM,-2.2,-7.6,78,30.41,10.0,ESE,3.5,-,N/A,,Overcast,120,2013-12-08 07:53:00
2:13 AM,-2.2,-7.6,78,30.40,10.0,ESE,5.8,-,N/A,,Overcast,120,2013-12-08 08:13:00
2:33 AM,-0.4,-7.6,72,30.40,7.0,ESE,4.6,-,N/A,Snow,Light Snow,110,2013-12-08 08:33:00
2:53 AM,-0.4,-5.8,78,30.38,5.0,ESE,6.9,-,N/A,Snow,Light Snow,110,2013-12-08 08:53:00
3:13 AM,-0.4,-5.8,78,30.38,4.0,ESE,5.8,-,N/A,Snow,Light Snow,110,2013-12-08 09:13:00
3:34 AM,-0.4,-4.0,85,30.36,4.0,ESE,6.9,-,N/A,Snow,Light Snow,110,2013-12-08 09:34:00
3:53 AM,-0.4,-4.0,85,30.35,5.0,ESE,8.1,-,N/A,Snow,Light Snow,120,2013-12-08 09:53:00
4:13 AM,1.4,-4.0,78,30.34,4.0,ESE,8.1,-,N/A,Snow,Light Snow,110,2013-12-08 10:13:00
4:33 AM,1.4,-2.2,85,30.33,3.0,ESE,6.9,-,N/A,Snow,Light Snow,110,2013-12-08 10:33:00
4:53 AM,1.4,-2.2,85,30.32,2.0,ESE,6.9,-,N/A,Snow,Light Snow,120,2013-12-08 10:53:00
5:13 AM,1.4,-2.2,85,30.31,2.5,ESE,8.1,-,N/A,Snow,Light Snow,120,2013-12-08 11:13:00
5:33 AM,1.4,-2.2,85,30.31,2.5,ESE,6.9,-,N/A,Snow,Light Snow,120,2013-12-08 11:33:00
5:53 AM,1.4,-2.2,85,30.30,3.0,ESE,6.9,-,N/A,Snow,Light Snow,120,2013-12-08 11:53:00
6:13 AM,1.4,-2.2,85,30.29,4.0,SE,9.2,-,N/A,Snow,Light Snow,130,2013-12-08 12:13:00
6:33 AM,3.2,-2.2,78,30.28,2.5,SE,8.1,-,N/A,Snow,Light Snow,130,2013-12-08 12:33:00
6:53 AM,3.2,-2.2,78,30.27,2.0,SE,9.2,-,N/A,Snow,Light Snow,130,2013-12-08 12:53:00
7:13 AM,3.2,-0.4,85,30.27,2.5,SE,10.4,-,N/A,Snow,Light Snow,140,2013-12-08 13:13:00
7:33 AM,3.2,-0.4,85,30.26,2.5,SE,8.1,-,N/A,Snow,Light Snow,140,2013-12-08 13:33:00
7:53 AM,3.2,-0.4,85,30.26,2.5,SE,9.2,-,N/A,Snow,Light Snow,130,2013-12-08 13:53:00
8:13 AM,3.2,-0.4,85,30.25,1.8,SE,11.5,-,N/A,Snow,Light Snow,130,2013-12-08 14:13:00
8:33 AM,3.2,-0.4,85,30.25,1.8,ESE,9.2,-,N/A,Snow,Light Snow,120,2013-12-08 14:33:00
8:53 AM,5.0,-0.4,78,30.24,1.8,SE,8.1,-,N/A,Snow,Light Snow,130,2013-12-08 14:53:00
9:13 AM,5.0,1.4,85,30.24,2.5,SE,10.4,-,N/A,Snow,Light Snow,130,2013-12-08 15:13:00
9:34 AM,6.8,1.4,79,30.23,2.5,SE,9.2,-,N/A,Snow,Light Snow,130,2013-12-08 15:34:00
9:53 AM,6.8,1.4,79,30.22,2.0,SE,10.4,-,N/A,Snow,Light Snow,130,2013-12-08 15:53:00
10:13 AM,6.8,1.4,79,30.22,2.5,SE,9.2,-,N/A,Snow,Light Snow,130,2013-12-08 16:13:00
10:33 AM,6.8,1.4,79,30.21,3.0,SE,9.2,-,N/A,,Haze,130,2013-12-08 16:33:00
10:54 AM,8.6,1.4,73,30.20,2.5,SE,10.4,-,N/A,,Haze,130,2013-12-08 16:54:00
11:14 AM,8.6,3.2,79,30.19,2.5,SE,10.4,-,N/A,Snow,Light Snow,130,2013-12-08 17:14:00
11:34 AM,10.4,3.2,73,30.18,2.5,SE,9.2,-,N/A,Snow,Light Snow,130,2013-12-08 17:34:00
11:53 AM,10.4,3.2,73,30.16,2.5,SE,10.4,-,N/A,,Haze,140,2013-12-08 17:53:00
12:13 PM,10.4,3.2,73,30.15,3.0,SE,12.7,-,N/A,Snow,Light Snow,130,2013-12-08 18:13:00
12:33 PM,10.4,5.0,79,30.14,2.5,SE,10.4,-,N/A,Snow,Light Snow,130,2013-12-08 18:33:00
12:54 PM,10.4,3.2,73,30.13,7.0,SE,10.4,-,N/A,Snow,Light Snow,130,2013-12-08 18:54:00
1:13 PM,10.4,5.0,79,30.12,5.0,SE,6.9,-,N/A,,Haze,140,2013-12-08 19:13:00
1:33 PM,10.4,5.0,79,30.11,5.0,SE,9.2,-,N/A,Snow,Light Snow,140,2013-12-08 19:33:00
1:54 PM,12.2,5.0,73,30.09,7.0,SE,8.1,-,N/A,Snow,Light Snow,130,2013-12-08 19:54:00
2:13 PM,10.4,6.8,85,30.08,2.5,SE,10.4,-,N/A,Snow,Light Snow,130,2013-12-08 20:13:00
2:33 PM,12.2,6.8,79,30.08,2.0,SE,8.1,-,N/A,Snow,Light Snow,140,2013-12-08 20:33:00
2:54 PM,12.2,6.8,79,30.07,3.0,SE,5.8,-,N/A,Snow,Light Snow,140,2013-12-08 20:54:00
3:13 PM,12.2,6.8,79,30.07,7.0,ESE,5.8,-,N/A,Snow,Light Snow,120,2013-12-08 21:13:00
3:33 PM,10.4,6.8,85,30.07,1.8,SE,4.6,-,N/A,Snow,Light Snow,130,2013-12-08 21:33:00
3:53 PM,10.4,6.8,85,30.08,7.0,SE,3.5,-,N/A,Snow,Light Snow,140,2013-12-08 21:53:00
4:13 PM,10.4,5.0,79,30.08,2.5,Calm,Calm,-,N/A,Snow,Light Snow,0,2013-12-08 22:13:00
4:33 PM,8.6,5.0,85,30.08,2.5,SE,3.5,-,N/A,Snow,Light Snow,130,2013-12-08 22:33:00
4:53 PM,8.6,6.8,92,30.08,7.0,Calm,Calm,-,N/A,Snow,Light Snow,0,2013-12-08 22:53:00
5:13 PM,8.6,6.8,92,30.07,3.0,Calm,Calm,-,N/A,Snow,Light Snow,0,2013-12-08 23:13:00
5:33 PM,8.6,6.8,92,30.07,2.5,Calm,Calm,-,N/A,Snow,Light Snow,0,2013-12-08 23:33:00
5:53 PM,8.6,6.8,92,30.06,2.5,Calm,Calm,-,N/A,Snow,Light Snow,0,2013-12-08 23:53:00
6:14 PM,6.8,3.2,85,30.06,5.0,Calm,Calm,-,N/A,Snow,Light Snow,0,2013-12-09 00:14:00
6:33 PM,5.0,1.4,85,30.06,5.0,Calm,Calm,-,N/A,Snow,Light Snow,0,2013-12-09 00:33:00
6:53 PM,6.8,3.2,85,30.06,4.0,Calm,Calm,-,N/A,Snow,Light Snow,0,2013-12-09 00:53:00
7:13 PM,3.2,-0.4,85,30.06,3.0,Calm,Calm,-,N/A,Snow,Light Snow,0,2013-12-09 01:13:00
7:33 PM,1.4,-0.4,92,30.06,3.0,Calm,Calm,-,N/A,Snow,Light Snow,0,2013-12-09 01:33:00
7:53 PM,3.2,1.4,92,30.05,3.0,Calm,Calm,-,N/A,Snow,Light Snow,0,2013-12-09 01:53:00
8:13 PM,3.2,1.4,92,30.05,4.0,Calm,Calm,-,N/A,Snow,Light Snow,0,2013-12-09 02:13:00
8:33 PM,3.2,1.4,92,30.05,5.0,Calm,Calm,-,N/A,Snow,Light Snow,0,2013-12-09 02:33:00
8:54 PM,3.2,-0.4,85,30.05,5.0,Calm,Calm,-,N/A,Snow,Light Snow,0,2013-12-09 02:54:00
9:13 PM,3.2,1.4,92,30.04,4.0,Calm,Calm,-,N/A,Snow,Light Snow,0,2013-12-09 03:13:00
9:33 PM,3.2,-0.4,85,30.05,4.0,Calm,Calm,-,N/A,Snow,Light Snow,0,2013-12-09 03:33:00
9:53 PM,3.2,-0.4,85,30.05,4.0,SW,6.9,-,N/A,Snow,Light Snow,230,2013-12-09 03:53:00
10:13 PM,3.2,-0.4,85,30.05,10.0,WSW,5.8,-,N/A,Snow,Light Snow,240,2013-12-09 04:13:00
10:33 PM,1.4,-2.2,85,30.05,10.0,WSW,5.8,-,N/A,,Scattered Clouds,240,2013-12-09 04:33:00
10:53 PM,1.4,-2.2,85,30.05,10.0,WSW,6.9,-,N/A,,Clear,250,2013-12-09 04:53:00
11:13 PM,-0.4,-4.0,85,30.04,10.0,WSW,8.1,-,N/A,,Clear,250,2013-12-09 05:13:00
11:33 PM,-0.4,-5.8,78,30.04,10.0,West,6.9,-,N/A,,Clear,260,2013-12-09 05:33:00
11:53 PM,-2.2,-5.8,85,30.04,10.0,West,5.8,-,N/A,,Clear,260,2013-12-09 05:53:00